Location: Darlington Observatory
(36.4817°N, 105.8156°W)
Time: 18:38:27
(UTC-06:00)

MOS 1 - Visible Passes

Search period start: 19 April 2014 00:00
Search period end: 29 April 2014 00:00
Orbit: 880 x 892 km, 99.2° (Epoch: 19 April)

Date Brightness Start Highest point End Pass type
(mag) Time Alt. Az. Time Alt. Az. Time Alt. Az.
19 Apr 5.4 05:00:57 10° NNE 05:06:22 44° E 05:11:42 10° S visible
20 Apr 5.5 04:59:28 10° NNE 05:04:50 42° E 05:10:08 10° S visible
21 Apr 5.5 04:57:58 10° NNE 05:03:18 41° E 05:08:35 10° SSE visible
22 Apr 5.6 04:56:28 10° NNE 05:01:46 39° E 05:07:00 10° SSE visible
23 Apr 5.7 04:54:59 10° NNE 05:00:14 38° E 05:05:26 10° SSE visible
24 Apr 5.7 04:53:29 10° NNE 04:58:42 37° E 05:03:52 10° SSE visible
25 Apr 5.8 04:52:00 10° NNE 04:57:10 36° E 05:02:17 10° SSE visible
26 Apr 5.8 04:50:30 10° NNE 04:55:38 34° E 05:00:42 10° SSE visible
27 Apr 5.9 04:49:01 10° NE 04:54:06 33° E 04:59:07 10° SSE visible
28 Apr 6.0 04:47:32 10° NE 04:52:33 32° E 04:57:32 10° SSE visible
